Simultaneous Nadir Overpasses (SNOs) Predictions

Prediction of SNOs near US between AQUA and NPP Satellite Orbit:

Table of predicted SNOs near US for the next 10.0 days since TLE Epoch: 6/4/2022
Index Date (AQUA) Time (AQUA) AQUA Lat,Lon Date (NPP) Time (NPP) NPP Lat,Lon Distance(km) Time Diff (sec)
1 06/07/2022 06:39:07 43.18, -67.39 06/07/2022 06:37:21 43.55, -69.67 188.55 106
2 06/07/2022 08:16:06 49.91, -89.55 06/07/2022 08:16:52 50.42, -92.25 200.24 46
3 06/07/2022 09:54:58 49.93,-114.26 06/07/2022 09:58:19 50.59,-117.54 244.71 201
4 06/09/2022 19:13:48 49.94, -93.70 06/09/2022 19:07:10 49.55, -95.80 156.92 398
5 06/09/2022 20:52:41 49.98,-118.44 06/09/2022 20:48:39 49.50,-121.15 202.42 242
